Time,TemperatureF,DewpointF,PressureIn,WindDirection,WindDirectionDegrees,WindSpeedMPH,WindSpeedGustMPH,Humidity,HourlyPrecipIn,Conditions,Clouds,dailyrainin,SoftwareType,DateUTC
2013-02-20 00:00:00,41.0,41.0,29.28,SSE,157,9.0,19.0,100,0.12,,,0.00,Rainwise IP-100,2013-02-20 05:00:00,
2013-02-20 00:05:00,41.0,41.0,29.27,ESE,112,6.0,15.0,100,0.18,,,0.01,Rainwise IP-100,2013-02-20 05:05:00,
2013-02-20 00:10:00,41.0,41.0,29.27,SE,135,9.0,17.0,100,0.12,,,0.02,Rainwise IP-100,2013-02-20 05:10:00,
2013-02-20 00:15:00,41.0,41.0,29.27,SE,135,9.0,18.0,100,0.18,,,0.04,Rainwise IP-100,2013-02-20 05:15:00,
2013-02-20 00:20:00,41.0,41.0,29.27,SSE,157,16.0,16.0,100,0.24,,,0.06,Rainwise IP-100,2013-02-20 05:20:00,
2013-02-20 00:25:00,41.0,41.0,29.26,SSE,157,10.0,16.0,100,0.24,,,0.08,Rainwise IP-100,2013-02-20 05:25:00,
2013-02-20 00:30:00,40.0,40.0,29.26,SSE,157,5.0,16.0,100,0.24,,,0.10,Rainwise IP-100,2013-02-20 05:30:00,
2013-02-20 00:35:00,41.0,41.0,29.24,ESE,112,8.0,17.0,100,0.24,,,0.12,Rainwise IP-100,2013-02-20 05:35:00,
2013-02-20 00:40:00,41.0,41.0,29.24,SE,135,10.0,18.0,100,0.30,,,0.15,Rainwise IP-100,2013-02-20 05:40:00,
2013-02-20 00:45:00,41.0,41.0,29.23,SE,135,12.0,20.0,100,0.30,,,0.17,Rainwise IP-100,2013-02-20 05:45:00,
2013-02-20 00:50:00,41.0,41.0,29.23,ESE,112,8.0,20.0,100,0.18,,,0.18,Rainwise IP-100,2013-02-20 05:50:00,
2013-02-20 00:55:00,41.0,41.0,29.23,SSE,157,9.0,19.0,100,0.18,,,0.20,Rainwise IP-100,2013-02-20 05:55:00,
2013-02-20 01:00:00,41.0,41.0,29.23,SSE,157,8.0,19.0,100,0.24,,,0.22,Rainwise IP-100,2013-02-20 06:00:00,
2013-02-20 01:05:00,41.0,41.0,29.22,ESE,112,7.0,22.0,100,0.24,,,0.24,Rainwise IP-100,2013-02-20 06:05:00,
2013-02-20 01:10:00,41.0,41.0,29.22,SE,135,7.0,17.0,100,0.24,,,0.26,Rainwise IP-100,2013-02-20 06:10:00,
2013-02-20 01:15:00,41.0,41.0,29.21,South,180,6.0,22.0,100,0.18,,,0.27,Rainwise IP-100,2013-02-20 06:15:00,
2013-02-20 01:20:00,41.0,41.0,29.21,SE,135,11.0,23.0,100,0.18,,,0.29,Rainwise IP-100,2013-02-20 06:20:00,
2013-02-20 01:25:00,41.0,41.0,29.20,SSE,157,10.0,19.0,100,0.24,,,0.31,Rainwise IP-100,2013-02-20 06:25:00,
2013-02-20 01:30:00,41.0,41.0,29.20,SSE,157,8.0,23.0,100,0.24,,,0.33,Rainwise IP-100,2013-02-20 06:30:00,
2013-02-20 01:32:00,42.0,42.0,29.19,SE,135,11.0,22.0,100,0.24,,,0.34,Rainwise IP-100,2013-02-20 06:32:00,
2013-02-20 01:37:00,41.0,41.0,29.19,ESE,112,7.0,22.0,100,0.24,,,0.36,Rainwise IP-100,2013-02-20 06:37:00,
2013-02-20 01:42:00,41.0,41.0,29.18,SE,135,8.0,22.0,100,0.24,,,0.38,Rainwise IP-100,2013-02-20 06:42:00,
2013-02-20 01:47:00,41.0,41.0,29.18,South,180,14.0,22.0,100,0.18,,,0.39,Rainwise IP-100,2013-02-20 06:47:00,
2013-02-20 01:52:00,42.0,42.0,29.17,SSE,157,11.0,25.0,100,0.12,,,0.40,Rainwise IP-100,2013-02-20 06:52:00,
2013-02-20 01:57:00,42.0,42.0,29.17,SSE,157,12.0,20.0,100,0.18,,,0.42,Rainwise IP-100,2013-02-20 06:57:00,
2013-02-20 02:02:00,42.0,42.0,29.15,SW,225,9.0,23.0,100,0.12,,,0.42,Rainwise IP-100,2013-02-20 07:02:00,
2013-02-20 02:07:00,42.0,42.0,29.15,SSE,157,10.0,19.0,100,0.12,,,0.44,Rainwise IP-100,2013-02-20 07:07:00,
2013-02-20 02:12:00,42.0,42.0,29.15,SSE,157,12.0,24.0,100,0.18,,,0.46,Rainwise IP-100,2013-02-20 07:12:00,
2013-02-20 02:17:00,43.0,43.0,29.15,SSE,157,16.0,25.0,100,0.30,,,0.49,Rainwise IP-100,2013-02-20 07:17:00,
2013-02-20 02:22:00,42.0,42.0,29.15,South,180,26.0,26.0,100,0.36,,,0.52,Rainwise IP-100,2013-02-20 07:22:00,
2013-02-20 02:27:00,42.0,42.0,29.15,SSW,202,14.0,29.0,100,0.30,,,0.54,Rainwise IP-100,2013-02-20 07:27:00,
2013-02-20 02:32:00,43.0,43.0,29.12,SSE,157,15.0,25.0,100,0.24,,,0.55,Rainwise IP-100,2013-02-20 07:32:00,
2013-02-20 02:37:00,42.0,42.0,29.12,ESE,112,24.0,28.0,100,0.12,,,0.57,Rainwise IP-100,2013-02-20 07:37:00,
2013-02-20 02:42:00,42.0,42.0,29.10,South,180,16.0,32.0,100,0.18,,,0.58,Rainwise IP-100,2013-02-20 07:42:00,
2013-02-20 02:43:00,42.0,42.0,29.10,SSE,157,19.0,27.0,100,0.18,,,0.58,Rainwise IP-100,2013-02-20 07:43:00,
2013-02-20 02:44:00,42.0,42.0,29.10,SSE,157,19.0,27.0,100,0.18,,,0.58,Rainwise IP-100,2013-02-20 07:44:00,
2013-02-20 02:48:00,43.0,43.0,29.10,South,180,10.0,19.0,100,0.18,,,0.60,Rainwise IP-100,2013-02-20 07:48:00,
2013-02-20 02:51:00,43.0,43.0,29.10,SE,135,7.0,21.0,100,0.12,,,0.60,Rainwise IP-100,2013-02-20 07:51:00,
2013-02-20 02:52:00,43.0,43.0,29.09,ESE,112,7.0,21.0,100,0.12,,,0.60,Rainwise IP-100,2013-02-20 07:52:00,
2013-02-20 02:54:00,43.0,43.0,29.09,SE,135,7.0,21.0,100,0.12,,,0.60,Rainwise IP-100,2013-02-20 07:54:00,
2013-02-20 02:55:00,43.0,43.0,29.09,SE,135,7.0,16.0,100,0.06,,,0.60,Rainwise IP-100,2013-02-20 07:55:00,
2013-02-20 02:56:00,43.0,43.0,29.09,SE,135,9.0,15.0,100,0.06,,,0.60,Rainwise IP-100,2013-02-20 07:56:00,
2013-02-20 02:59:00,43.0,43.0,29.09,SE,135,14.0,23.0,100,0.12,,,0.62,Rainwise IP-100,2013-02-20 07:59:00,
2013-02-20 03:05:00,43.0,43.0,29.08,SSE,157,12.0,31.0,100,0.30,,,0.65,Rainwise IP-100,2013-02-20 08:05:00,
2013-02-20 03:10:00,43.0,43.0,29.08,South,180,14.0,36.0,100,0.24,,,0.67,Rainwise IP-100,2013-02-20 08:10:00,
2013-02-20 03:15:00,43.0,43.0,29.06,SE,135,15.0,27.0,100,0.30,,,0.70,Rainwise IP-100,2013-02-20 08:15:00,
2013-02-20 03:20:00,43.0,43.0,29.06,SE,135,10.0,28.0,100,0.30,,,0.72,Rainwise IP-100,2013-02-20 08:20:00,
2013-02-20 03:25:00,43.0,43.0,29.05,SSE,157,5.0,28.0,100,0.24,,,0.74,Rainwise IP-100,2013-02-20 08:25:00,
2013-02-20 03:30:00,43.0,43.0,29.05,SSE,157,22.0,28.0,100,0.18,,,0.75,Rainwise IP-100,2013-02-20 08:30:00,
2013-02-20 03:35:00,43.0,43.0,29.07,South,180,11.0,26.0,100,0.18,,,0.77,Rainwise IP-100,2013-02-20 08:35:00,
2013-02-20 03:40:00,43.0,43.0,29.07,SSW,202,18.0,26.0,100,0.36,,,0.81,Rainwise IP-100,2013-02-20 08:40:00,
2013-02-20 03:45:00,43.0,43.0,29.05,ESE,112,9.0,24.0,100,0.48,,,0.85,Rainwise IP-100,2013-02-20 08:45:00,
2013-02-20 03:50:00,43.0,43.0,29.05,SSW,202,19.0,24.0,100,0.36,,,0.87,Rainwise IP-100,2013-02-20 08:50:00,
2013-02-20 03:55:00,43.0,43.0,29.05,SSW,202,15.0,26.0,100,0.18,,,0.88,Rainwise IP-100,2013-02-20 08:55:00,
2013-02-20 04:00:00,42.0,42.0,29.05,SSE,157,7.0,21.0,100,0.06,,,0.88,Rainwise IP-100,2013-02-20 09:00:00,
2013-02-20 04:05:00,42.0,42.0,29.03,SE,135,13.0,19.0,100,0.06,,,0.89,Rainwise IP-100,2013-02-20 09:05:00,
2013-02-20 04:10:00,42.0,42.0,29.03,South,180,12.0,19.0,100,0.12,,,0.90,Rainwise IP-100,2013-02-20 09:10:00,
2013-02-20 04:15:00,42.0,42.0,29.03,South,180,8.0,17.0,100,0.06,,,0.90,Rainwise IP-100,2013-02-20 09:15:00,
2013-02-20 04:20:00,42.0,42.0,29.03,South,180,11.0,16.0,100,0.06,,,0.91,Rainwise IP-100,2013-02-20 09:20:00,
2013-02-20 04:25:00,42.0,42.0,29.02,South,180,12.0,16.0,100,0.06,,,0.91,Rainwise IP-100,2013-02-20 09:25:00,
2013-02-20 04:30:00,42.0,42.0,29.02,SE,135,9.0,15.0,100,0.06,,,0.92,Rainwise IP-100,2013-02-20 09:30:00,
2013-02-20 04:35:00,42.0,42.0,29.00,SW,225,7.0,16.0,100,0.06,,,0.92,Rainwise IP-100,2013-02-20 09:35:00,
2013-02-20 04:40:00,42.0,42.0,29.00,SE,135,11.0,16.0,100,0.00,,,0.92,Rainwise IP-100,2013-02-20 09:40:00,
2013-02-20 04:45:00,42.0,42.0,28.99,SSE,157,6.0,19.0,100,0.00,,,0.92,Rainwise IP-100,2013-02-20 09:45:00,
2013-02-20 04:50:00,42.0,42.0,28.99,ESE,112,9.0,21.0,100,0.00,,,0.92,Rainwise IP-100,2013-02-20 09:50:00,
2013-02-20 04:55:00,42.0,42.0,28.98,South,180,10.0,18.0,100,0.00,,,0.92,Rainwise IP-100,2013-02-20 09:55:00,
2013-02-20 04:56:00,42.0,42.0,28.98,SE,135,8.0,18.0,100,0.00,,,0.92,Rainwise IP-100,2013-02-20 09:56:00,
2013-02-20 04:57:00,42.0,42.0,28.98,SE,135,6.0,18.0,100,0.00,,,0.92,Rainwise IP-100,2013-02-20 09:57:00,
2013-02-20 05:00:00,42.0,42.0,28.98,SSW,202,8.0,12.0,100,0.00,,,0.92,Rainwise IP-100,2013-02-20 10:00:00,
2013-02-20 05:02:00,42.0,42.0,28.98,SSE,157,8.0,11.0,100,0.00,,,0.92,Rainwise IP-100,2013-02-20 10:02:00,
2013-02-20 05:03:00,43.0,43.0,28.97,South,180,11.0,11.0,100,0.00,,,0.92,Rainwise IP-100,2013-02-20 10:03:00,
2013-02-20 05:04:00,43.0,43.0,28.97,South,180,11.0,11.0,100,0.00,,,0.92,Rainwise IP-100,2013-02-20 10:04:00,
2013-02-20 05:09:00,43.0,43.0,28.97,South,180,8.0,11.0,100,0.00,,,0.92,Rainwise IP-100,2013-02-20 10:09:00,
2013-02-20 05:14:00,43.0,43.0,28.97,South,180,9.0,14.0,100,0.12,,,0.94,Rainwise IP-100,2013-02-20 10:14:00,
2013-02-20 05:19:00,43.0,43.0,28.97,SW,225,10.0,13.0,100,0.24,,,0.96,Rainwise IP-100,2013-02-20 10:19:00,
2013-02-20 05:24:00,43.0,43.0,28.97,SSW,202,14.0,17.0,100,0.18,,,0.97,Rainwise IP-100,2013-02-20 10:24:00,
2013-02-20 05:29:00,43.0,43.0,28.97,WSW,247,6.0,15.0,100,0.06,,,0.97,Rainwise IP-100,2013-02-20 10:29:00,
2013-02-20 05:34:00,42.0,42.0,28.99,West,270,5.0,10.0,100,0.00,,,0.97,Rainwise IP-100,2013-02-20 10:34:00,
2013-02-20 05:39:00,42.0,42.0,28.99,West,270,6.0,14.0,100,0.00,,,0.97,Rainwise IP-100,2013-02-20 10:39:00,
2013-02-20 05:44:00,42.0,42.0,28.97,West,270,8.0,15.0,100,0.00,,,0.97,Rainwise IP-100,2013-02-20 10:44:00,
2013-02-20 05:49:00,42.0,42.0,28.97,SW,225,11.0,12.0,100,0.00,,,0.97,Rainwise IP-100,2013-02-20 10:49:00,
2013-02-20 05:54:00,42.0,42.0,28.97,WSW,247,7.0,12.0,100,0.00,,,0.97,Rainwise IP-100,2013-02-20 10:54:00,
2013-02-20 05:59:00,41.0,41.0,28.97,West,270,4.0,10.0,100,0.00,,,0.97,Rainwise IP-100,2013-02-20 10:59:00,
2013-02-20 06:04:00,41.0,41.0,28.98,West,270,8.0,14.0,100,0.00,,,0.97,Rainwise IP-100,2013-02-20 11:04:00,
2013-02-20 06:09:00,41.0,41.0,28.98,West,270,4.0,13.0,100,0.00,,,0.97,Rainwise IP-100,2013-02-20 11:09:00,
2013-02-20 06:14:00,41.0,41.0,28.97,West,270,5.0,9.0,100,0.00,,,0.97,Rainwise IP-100,2013-02-20 11:14:00,
2013-02-20 06:19:00,41.0,41.0,28.97,West,270,7.0,17.0,100,0.00,,,0.97,Rainwise IP-100,2013-02-20 11:19:00,
2013-02-20 06:24:00,41.0,41.0,28.97,SW,225,10.0,15.0,100,0.06,,,0.98,Rainwise IP-100,2013-02-20 11:24:00,
2013-02-20 06:29:00,41.0,41.0,28.97,West,270,2.0,17.0,100,0.06,,,0.98,Rainwise IP-100,2013-02-20 11:29:00,
2013-02-20 06:34:00,41.0,41.0,28.97,SW,225,4.0,17.0,100,0.00,,,0.98,Rainwise IP-100,2013-02-20 11:34:00,
2013-02-20 06:39:00,41.0,41.0,28.97,WSW,247,5.0,11.0,100,0.00,,,0.98,Rainwise IP-100,2013-02-20 11:39:00,
2013-02-20 06:44:00,40.0,40.0,28.98,WSW,247,8.0,12.0,100,0.00,,,0.98,Rainwise IP-100,2013-02-20 11:44:00,
2013-02-20 06:49:00,40.0,40.0,28.98,West,270,2.0,10.0,100,0.00,,,0.98,Rainwise IP-100,2013-02-20 11:49:00,
2013-02-20 06:54:00,40.0,40.0,28.98,West,270,6.0,12.0,100,0.00,,,0.98,Rainwise IP-100,2013-02-20 11:54:00,
2013-02-20 06:59:00,40.0,40.0,28.98,West,270,6.0,11.0,100,0.00,,,0.98,Rainwise IP-100,2013-02-20 11:59:00,
2013-02-20 07:04:00,40.0,40.0,28.99,West,270,5.0,10.0,100,0.00,,,0.98,Rainwise IP-100,2013-02-20 12:04:00,
2013-02-20 07:09:00,40.0,40.0,28.99,West,270,12.0,15.0,100,0.00,,,0.98,Rainwise IP-100,2013-02-20 12:09:00,
2013-02-20 07:14:00,40.0,40.0,28.99,WSW,247,9.0,19.0,100,0.00,,,0.98,Rainwise IP-100,2013-02-20 12:14:00,
2013-02-20 07:19:00,40.0,40.0,28.99,SW,225,8.0,16.0,100,0.00,,,0.98,Rainwise IP-100,2013-02-20 12:19:00,
2013-02-20 07:24:00,40.0,40.0,28.99,West,270,8.0,15.0,100,0.00,,,0.98,Rainwise IP-100,2013-02-20 12:24:00,
2013-02-20 07:29:00,39.0,39.0,28.99,West,270,9.0,20.0,100,0.00,,,0.98,Rainwise IP-100,2013-02-20 12:29:00,
2013-02-20 07:34:00,38.0,38.0,29.00,West,270,11.0,25.0,99,0.00,,,0.98,Rainwise IP-100,2013-02-20 12:34:00,
2013-02-20 07:39:00,38.0,38.0,29.00,West,270,7.0,15.0,100,0.00,,,0.98,Rainwise IP-100,2013-02-20 12:39:00,
2013-02-20 07:44:00,38.0,38.0,29.01,West,270,5.0,16.0,100,0.00,,,0.98,Rainwise IP-100,2013-02-20 12:44:00,
2013-02-20 07:49:00,37.0,37.0,29.01,West,270,12.0,22.0,98,0.00,,,0.98,Rainwise IP-100,2013-02-20 12:49:00,
2013-02-20 07:54:00,37.0,37.0,29.00,West,270,5.0,19.0,98,0.00,,,0.98,Rainwise IP-100,2013-02-20 12:54:00,
2013-02-20 07:59:00,36.0,36.0,29.00,West,270,9.0,14.0,98,0.00,,,0.98,Rainwise IP-100,2013-02-20 12:59:00,
2013-02-20 08:04:00,36.0,36.0,29.01,West,270,6.0,13.0,98,0.00,,,0.98,Rainwise IP-100,2013-02-20 13:04:00,
2013-02-20 08:09:00,36.0,35.0,29.01,West,270,15.0,15.0,97,0.00,,,0.98,Rainwise IP-100,2013-02-20 13:09:00,
2013-02-20 08:14:00,36.0,35.0,29.01,South,180,2.0,17.0,97,0.00,,,0.98,Rainwise IP-100,2013-02-20 13:14:00,
2013-02-20 08:19:00,35.0,33.0,29.01,West,270,5.0,18.0,96,0.00,,,0.98,Rainwise IP-100,2013-02-20 13:19:00,
2013-02-20 08:24:00,36.0,35.0,29.01,West,270,5.0,15.0,95,0.00,,,0.98,Rainwise IP-100,2013-02-20 13:24:00,
2013-02-20 08:29:00,36.0,35.0,29.01,West,270,0.0,13.0,96,0.00,,,0.98,Rainwise IP-100,2013-02-20 13:29:00,
2013-02-20 08:34:00,35.0,33.0,29.01,NNE,22,3.0,17.0,95,0.00,,,0.98,Rainwise IP-100,2013-02-20 13:34:00,
2013-02-20 08:39:00,35.0,33.0,29.01,West,270,8.0,15.0,95,0.00,,,0.98,Rainwise IP-100,2013-02-20 13:39:00,
2013-02-20 08:44:00,35.0,33.0,29.02,WSW,247,4.0,15.0,94,0.00,,,0.98,Rainwise IP-100,2013-02-20 13:44:00,
2013-02-20 08:49:00,35.0,33.0,29.02,West,270,4.0,22.0,93,0.00,,,0.98,Rainwise IP-100,2013-02-20 13:49:00,
2013-02-20 08:54:00,35.0,33.0,29.02,West,270,8.0,14.0,93,0.00,,,0.98,Rainwise IP-100,2013-02-20 13:54:00,
2013-02-20 08:59:00,36.0,35.0,29.02,West,270,5.0,13.0,93,0.00,,,0.98,Rainwise IP-100,2013-02-20 13:59:00,
2013-02-20 09:04:00,37.0,36.0,29.03,West,270,5.0,13.0,94,0.00,,,0.98,Rainwise IP-100,2013-02-20 14:04:00,
2013-02-20 09:09:00,37.0,35.0,29.03,West,270,1.0,16.0,89,0.00,,,0.98,Rainwise IP-100,2013-02-20 14:09:00,
2013-02-20 09:14:00,36.0,33.0,29.04,North,360,9.0,15.0,89,0.00,,,0.98,Rainwise IP-100,2013-02-20 14:14:00,
2013-02-20 09:19:00,36.0,33.0,29.04,North,360,6.0,17.0,90,0.00,,,0.98,Rainwise IP-100,2013-02-20 14:19:00,
2013-02-20 09:24:00,36.0,33.0,29.04,South,180,2.0,13.0,91,0.00,,,0.98,Rainwise IP-100,2013-02-20 14:24:00,
2013-02-20 09:29:00,37.0,35.0,29.04,SSW,202,5.0,16.0,89,0.00,,,0.98,Rainwise IP-100,2013-02-20 14:29:00,
2013-02-20 09:34:00,38.0,35.0,29.04,North,360,3.0,10.0,88,0.00,,,0.98,Rainwise IP-100,2013-02-20 14:34:00,
2013-02-20 09:39:00,38.0,33.0,29.04,West,270,7.0,15.0,81,0.00,,,0.98,Rainwise IP-100,2013-02-20 14:39:00,
2013-02-20 09:44:00,38.0,33.0,29.05,WSW,247,4.0,12.0,83,0.00,,,0.98,Rainwise IP-100,2013-02-20 14:44:00,
2013-02-20 09:49:00,39.0,36.0,29.05,South,180,2.0,12.0,86,0.00,,,0.98,Rainwise IP-100,2013-02-20 14:49:00,
2013-02-20 09:54:00,39.0,33.0,29.05,West,270,15.0,15.0,78,0.00,,,0.98,Rainwise IP-100,2013-02-20 14:54:00,
2013-02-20 09:59:00,39.0,33.0,29.05,South,180,1.0,17.0,78,0.00,,,0.98,Rainwise IP-100,2013-02-20 14:59:00,
2013-02-20 10:04:00,39.0,32.0,29.05,West,270,14.0,16.0,74,0.00,,,0.98,Rainwise IP-100,2013-02-20 15:04:00,
2013-02-20 10:09:00,38.0,32.0,29.05,SE,135,1.0,16.0,77,0.00,,,0.98,Rainwise IP-100,2013-02-20 15:09:00,
2013-02-20 10:14:00,39.0,33.0,29.06,North,360,1.0,18.0,81,0.00,,,0.98,Rainwise IP-100,2013-02-20 15:14:00,
2013-02-20 10:19:00,40.0,33.0,29.06,North,360,2.0,16.0,77,0.00,,,0.98,Rainwise IP-100,2013-02-20 15:19:00,
2013-02-20 10:24:00,40.0,32.0,29.07,West,270,8.0,14.0,70,0.00,,,0.98,Rainwise IP-100,2013-02-20 15:24:00,
2013-02-20 10:29:00,40.0,32.0,29.07,North,360,4.0,10.0,73,0.00,,,0.98,Rainwise IP-100,2013-02-20 15:29:00,
2013-02-20 10:34:00,39.0,31.0,29.07,West,270,9.0,18.0,70,0.00,,,0.98,Rainwise IP-100,2013-02-20 15:34:00,
2013-02-20 10:39:00,39.0,32.0,29.07,West,270,7.0,18.0,73,0.00,,,0.98,Rainwise IP-100,2013-02-20 15:39:00,
2013-02-20 10:44:00,39.0,29.0,29.06,West,270,7.0,16.0,67,0.00,,,0.98,Rainwise IP-100,2013-02-20 15:44:00,
2013-02-20 10:49:00,40.0,32.0,29.06,South,180,4.0,11.0,72,0.00,,,0.98,Rainwise IP-100,2013-02-20 15:49:00,
2013-02-20 10:54:00,41.0,32.0,29.06,West,270,5.0,12.0,68,0.00,,,0.98,Rainwise IP-100,2013-02-20 15:54:00,
2013-02-20 10:59:00,40.0,29.0,29.06,West,270,7.0,14.0,65,0.00,,,0.98,Rainwise IP-100,2013-02-20 15:59:00,
2013-02-20 11:04:00,41.0,32.0,29.07,West,270,6.0,13.0,70,0.00,,,0.98,Rainwise IP-100,2013-02-20 16:04:00,
2013-02-20 11:09:00,39.0,29.0,29.07,West,270,8.0,15.0,66,0.00,,,0.98,Rainwise IP-100,2013-02-20 16:09:00,
2013-02-20 11:14:00,38.0,29.0,29.07,West,270,9.0,15.0,68,0.00,,,0.98,Rainwise IP-100,2013-02-20 16:14:00,
2013-02-20 11:19:00,38.0,29.0,29.07,West,270,5.0,16.0,69,0.00,,,0.98,Rainwise IP-100,2013-02-20 16:19:00,
2013-02-20 11:24:00,39.0,31.0,29.06,West,270,5.0,19.0,70,0.00,,,0.98,Rainwise IP-100,2013-02-20 16:24:00,
2013-02-20 11:29:00,38.0,29.0,29.06,West,270,8.0,15.0,68,0.00,,,0.98,Rainwise IP-100,2013-02-20 16:29:00,
2013-02-20 11:34:00,38.0,29.0,29.07,West,270,7.0,16.0,69,0.00,,,0.98,Rainwise IP-100,2013-02-20 16:34:00,
2013-02-20 11:39:00,38.0,29.0,29.07,West,270,6.0,15.0,70,0.00,,,0.98,Rainwise IP-100,2013-02-20 16:39:00,
2013-02-20 11:44:00,39.0,31.0,29.07,NNE,22,4.0,10.0,71,0.00,,,0.98,Rainwise IP-100,2013-02-20 16:44:00,
2013-02-20 11:49:00,38.0,29.0,29.07,West,270,8.0,15.0,68,0.00,,,0.98,Rainwise IP-100,2013-02-20 16:49:00,
2013-02-20 11:54:00,38.0,29.0,29.07,West,270,5.0,15.0,68,0.00,,,0.98,Rainwise IP-100,2013-02-20 16:54:00,
2013-02-20 11:59:00,38.0,28.0,29.07,West,270,15.0,15.0,66,0.00,,,0.98,Rainwise IP-100,2013-02-20 16:59:00,
2013-02-20 12:04:00,38.0,28.0,29.05,West,270,9.0,15.0,65,0.00,,,0.98,Rainwise IP-100,2013-02-20 17:04:00,
2013-02-20 12:09:00,39.0,28.0,29.05,West,270,11.0,13.0,64,0.00,,,0.98,Rainwise IP-100,2013-02-20 17:09:00,
2013-02-20 12:14:00,39.0,28.0,29.05,West,270,10.0,14.0,63,0.00,,,0.98,Rainwise IP-100,2013-02-20 17:14:00,
2013-02-20 12:19:00,41.0,31.0,29.05,West,270,7.0,16.0,65,0.00,,,0.98,Rainwise IP-100,2013-02-20 17:19:00,
2013-02-20 12:24:00,40.0,26.0,29.06,West,270,14.0,17.0,56,0.00,,,0.98,Rainwise IP-100,2013-02-20 17:24:00,
2013-02-20 12:29:00,41.0,28.0,29.06,SW,225,7.0,18.0,56,0.00,,,0.98,Rainwise IP-100,2013-02-20 17:29:00,
2013-02-20 12:34:00,41.0,24.0,29.06,West,270,6.0,19.0,51,0.00,,,0.98,Rainwise IP-100,2013-02-20 17:34:00,
2013-02-20 12:39:00,41.0,24.0,29.06,West,270,10.0,17.0,51,0.00,,,0.98,Rainwise IP-100,2013-02-20 17:39:00,
2013-02-20 12:44:00,42.0,28.0,29.06,NNE,22,3.0,18.0,56,0.00,,,0.98,Rainwise IP-100,2013-02-20 17:44:00,
2013-02-20 12:49:00,41.0,24.0,29.06,West,270,8.0,16.0,49,0.00,,,0.98,Rainwise IP-100,2013-02-20 17:49:00,
2013-02-20 12:54:00,41.0,26.0,29.06,West,270,9.0,19.0,53,0.00,,,0.98,Rainwise IP-100,2013-02-20 17:54:00,
2013-02-20 12:59:00,41.0,26.0,29.06,West,270,5.0,18.0,53,0.00,,,0.98,Rainwise IP-100,2013-02-20 17:59:00,
2013-02-20 13:04:00,41.0,24.0,29.05,West,270,12.0,14.0,49,0.00,,,0.98,Rainwise IP-100,2013-02-20 18:04:00,
2013-02-20 13:09:00,40.0,24.0,29.05,West,270,10.0,13.0,52,0.00,,,0.98,Rainwise IP-100,2013-02-20 18:09:00,
2013-02-20 13:14:00,40.0,28.0,29.05,West,270,3.0,15.0,60,0.00,,,0.98,Rainwise IP-100,2013-02-20 18:14:00,
2013-02-20 13:19:00,40.0,26.0,29.05,West,270,7.0,14.0,56,0.00,,,0.98,Rainwise IP-100,2013-02-20 18:19:00,
2013-02-20 13:24:00,40.0,26.0,29.05,SW,225,6.0,12.0,57,0.00,,,0.98,Rainwise IP-100,2013-02-20 18:24:00,
2013-02-20 13:29:00,39.0,24.0,29.05,West,270,14.0,14.0,54,0.00,,,0.98,Rainwise IP-100,2013-02-20 18:29:00,
2013-02-20 13:34:00,39.0,24.0,29.05,West,270,12.0,17.0,54,0.00,,,0.98,Rainwise IP-100,2013-02-20 18:34:00,
2013-02-20 13:39:00,38.0,26.0,29.05,West,270,12.0,18.0,59,0.00,,,0.98,Rainwise IP-100,2013-02-20 18:39:00,
2013-02-20 13:44:00,38.0,24.0,29.04,North,360,4.0,15.0,57,0.00,,,0.98,Rainwise IP-100,2013-02-20 18:44:00,
2013-02-20 13:49:00,39.0,28.0,29.04,West,270,4.0,12.0,62,0.00,,,0.98,Rainwise IP-100,2013-02-20 18:49:00,
2013-02-20 13:51:00,39.0,24.0,29.03,West,270,8.0,14.0,56,0.00,,,0.98,Rainwise IP-100,2013-02-20 18:51:00,
2013-02-20 13:54:00,39.0,24.0,29.03,West,270,8.0,14.0,56,0.00,,,0.98,Rainwise IP-100,2013-02-20 18:54:00,
2013-02-20 13:59:00,38.0,26.0,29.03,SW,225,9.0,20.0,59,0.00,,,0.98,Rainwise IP-100,2013-02-20 18:59:00,
2013-02-20 14:04:00,38.0,24.0,29.04,West,270,13.0,15.0,57,0.00,,,0.98,Rainwise IP-100,2013-02-20 19:04:00,
2013-02-20 14:09:00,38.0,26.0,29.04,West,270,6.0,17.0,59,0.00,,,0.98,Rainwise IP-100,2013-02-20 19:09:00,
2013-02-20 14:14:00,38.0,26.0,29.03,West,270,11.0,13.0,59,0.00,,,0.98,Rainwise IP-100,2013-02-20 19:14:00,
2013-02-20 14:15:00,38.0,24.0,29.03,West,270,13.0,17.0,57,0.00,,,0.98,Rainwise IP-100,2013-02-20 19:15:00,
2013-02-20 14:18:00,37.0,24.0,29.03,WSW,247,9.0,19.0,57,0.00,,,0.98,Rainwise IP-100,2013-02-20 19:18:00,
2013-02-20 14:19:00,37.0,24.0,29.03,West,270,6.0,19.0,59,0.00,,,0.98,Rainwise IP-100,2013-02-20 19:19:00,
2013-02-20 14:24:00,37.0,24.0,29.04,WSW,247,9.0,19.0,58,0.00,,,0.98,Rainwise IP-100,2013-02-20 19:24:00,
2013-02-20 14:27:00,37.0,24.0,29.04,West,270,10.0,19.0,59,0.00,,,0.98,Rainwise IP-100,2013-02-20 19:27:00,
2013-02-20 14:29:00,37.0,24.0,29.04,West,270,8.0,17.0,59,0.00,,,0.98,Rainwise IP-100,2013-02-20 19:29:00,
2013-02-20 14:34:00,37.0,24.0,29.04,West,270,6.0,15.0,59,0.00,,,0.98,Rainwise IP-100,2013-02-20 19:34:00,
2013-02-20 14:39:00,37.0,24.0,29.04,West,270,10.0,17.0,61,0.00,,,0.98,Rainwise IP-100,2013-02-20 19:39:00,
2013-02-20 14:44:00,37.0,24.0,29.05,West,270,12.0,19.0,59,0.00,,,0.98,Rainwise IP-100,2013-02-20 19:44:00,
2013-02-20 14:49:00,37.0,24.0,29.05,West,270,12.0,16.0,60,0.00,,,0.98,Rainwise IP-100,2013-02-20 19:49:00,
2013-02-20 14:54:00,36.0,24.0,29.05,West,270,11.0,17.0,60,0.00,,,0.98,Rainwise IP-100,2013-02-20 19:54:00,
2013-02-20 14:59:00,36.0,24.0,29.05,West,270,6.0,16.0,61,0.00,,,0.98,Rainwise IP-100,2013-02-20 19:59:00,
2013-02-20 15:04:00,36.0,24.0,29.04,WSW,247,4.0,17.0,60,0.00,,,0.98,Rainwise IP-100,2013-02-20 20:04:00,
2013-02-20 15:09:00,36.0,24.0,29.04,West,270,9.0,19.0,61,0.00,,,0.98,Rainwise IP-100,2013-02-20 20:09:00,
2013-02-20 15:14:00,36.0,24.0,29.04,West,270,12.0,16.0,61,0.00,,,0.98,Rainwise IP-100,2013-02-20 20:14:00,
2013-02-20 15:19:00,36.0,24.0,29.04,West,270,5.0,17.0,61,0.00,,,0.98,Rainwise IP-100,2013-02-20 20:19:00,
2013-02-20 15:24:00,36.0,24.0,29.04,West,270,5.0,14.0,62,0.00,,,0.98,Rainwise IP-100,2013-02-20 20:24:00,
2013-02-20 15:29:00,36.0,24.0,29.04,West,270,6.0,17.0,62,0.00,,,0.98,Rainwise IP-100,2013-02-20 20:29:00,
2013-02-20 15:34:00,36.0,26.0,29.04,West,270,5.0,15.0,65,0.00,,,0.98,Rainwise IP-100,2013-02-20 20:34:00,
2013-02-20 15:39:00,36.0,24.0,29.04,West,270,9.0,17.0,63,0.00,,,0.98,Rainwise IP-100,2013-02-20 20:39:00,
2013-02-20 15:44:00,35.0,24.0,29.05,West,270,5.0,13.0,63,0.00,,,0.98,Rainwise IP-100,2013-02-20 20:44:00,
2013-02-20 15:49:00,35.0,24.0,29.05,West,270,11.0,13.0,64,0.00,,,0.98,Rainwise IP-100,2013-02-20 20:49:00,
2013-02-20 15:54:00,35.0,24.0,29.06,West,270,9.0,15.0,64,0.00,,,0.98,Rainwise IP-100,2013-02-20 20:54:00,
2013-02-20 15:59:00,35.0,24.0,29.06,West,270,9.0,12.0,64,0.00,,,0.98,Rainwise IP-100,2013-02-20 20:59:00,
2013-02-20 16:04:00,35.0,24.0,29.05,West,270,6.0,11.0,65,0.00,,,0.98,Rainwise IP-100,2013-02-20 21:04:00,
2013-02-20 16:09:00,35.0,24.0,29.05,West,270,7.0,13.0,65,0.00,,,0.98,Rainwise IP-100,2013-02-20 21:09:00,
2013-02-20 16:14:00,35.0,24.0,29.05,North,360,3.0,17.0,65,0.00,,,0.98,Rainwise IP-100,2013-02-20 21:14:00,
2013-02-20 16:19:00,35.0,24.0,29.05,West,270,4.0,14.0,64,0.00,,,0.98,Rainwise IP-100,2013-02-20 21:19:00,
2013-02-20 16:24:00,35.0,24.0,29.05,West,270,8.0,13.0,65,0.00,,,0.98,Rainwise IP-100,2013-02-20 21:24:00,
2013-02-20 16:25:00,34.0,24.0,29.05,West,270,4.0,13.0,66,0.00,,,0.98,Rainwise IP-100,2013-02-20 21:25:00,
2013-02-20 16:30:00,34.0,24.0,29.05,West,270,10.0,15.0,65,0.00,,,0.98,Rainwise IP-100,2013-02-20 21:30:00,
2013-02-20 16:35:00,34.0,24.0,29.06,West,270,5.0,11.0,65,0.00,,,0.98,Rainwise IP-100,2013-02-20 21:35:00,
2013-02-20 16:40:00,34.0,24.0,29.07,West,270,7.0,12.0,65,0.00,,,0.98,Rainwise IP-100,2013-02-20 21:40:00,
2013-02-20 16:46:00,34.0,24.0,29.07,West,270,4.0,10.0,66,0.00,,,0.98,Rainwise IP-100,2013-02-20 21:46:00,
2013-02-20 16:51:00,34.0,24.0,29.07,West,270,2.0,9.0,66,0.00,,,0.98,Rainwise IP-100,2013-02-20 21:51:00,
2013-02-20 16:56:00,34.0,24.0,29.08,West,270,3.0,13.0,65,0.00,,,0.98,Rainwise IP-100,2013-02-20 21:56:00,
2013-02-20 17:01:00,34.0,24.0,29.07,West,270,3.0,15.0,65,0.00,,,0.98,Rainwise IP-100,2013-02-20 22:01:00,
2013-02-20 17:02:00,34.0,24.0,29.07,North,360,6.0,14.0,66,0.00,,,0.98,Rainwise IP-100,2013-02-20 22:02:00,
2013-02-20 17:07:00,34.0,24.0,29.07,North,360,5.0,7.0,66,0.00,,,0.98,Rainwise IP-100,2013-02-20 22:07:00,
2013-02-20 17:12:00,34.0,24.0,29.07,West,270,3.0,9.0,66,0.00,,,0.98,Rainwise IP-100,2013-02-20 22:12:00,
2013-02-20 17:17:00,34.0,24.0,29.07,North,360,2.0,12.0,65,0.00,,,0.98,Rainwise IP-100,2013-02-20 22:17:00,
2013-02-20 17:22:00,33.0,24.0,29.07,North,360,0.0,9.0,66,0.00,,,0.98,Rainwise IP-100,2013-02-20 22:22:00,
2013-02-20 17:27:00,33.0,24.0,29.07,North,360,2.0,7.0,69,0.00,,,0.98,Rainwise IP-100,2013-02-20 22:27:00,
2013-02-20 17:32:00,33.0,24.0,29.08,West,270,4.0,6.0,67,0.00,,,0.98,Rainwise IP-100,2013-02-20 22:32:00,
2013-02-20 17:37:00,33.0,24.0,29.08,WSW,247,6.0,9.0,68,0.00,,,0.98,Rainwise IP-100,2013-02-20 22:37:00,
2013-02-20 17:42:00,33.0,24.0,29.09,West,270,2.0,10.0,67,0.00,,,0.98,Rainwise IP-100,2013-02-20 22:42:00,
2013-02-20 17:47:00,33.0,24.0,29.09,West,270,5.0,9.0,66,0.00,,,0.98,Rainwise IP-100,2013-02-20 22:47:00,
2013-02-20 17:52:00,33.0,24.0,29.09,West,270,3.0,7.0,67,0.00,,,0.98,Rainwise IP-100,2013-02-20 22:52:00,
2013-02-20 17:57:00,33.0,23.0,29.09,West,270,3.0,9.0,65,0.00,,,0.98,Rainwise IP-100,2013-02-20 22:57:00,
2013-02-20 18:02:00,33.0,24.0,29.09,West,270,5.0,7.0,66,0.00,,,0.98,Rainwise IP-100,2013-02-20 23:02:00,
2013-02-20 18:07:00,33.0,23.0,29.09,West,270,7.0,9.0,65,0.00,,,0.98,Rainwise IP-100,2013-02-20 23:07:00,
2013-02-20 18:12:00,33.0,24.0,29.10,WSW,247,4.0,9.0,66,0.00,,,0.98,Rainwise IP-100,2013-02-20 23:12:00,
2013-02-20 18:17:00,33.0,24.0,29.10,West,270,4.0,8.0,66,0.00,,,0.98,Rainwise IP-100,2013-02-20 23:17:00,
2013-02-20 18:22:00,33.0,23.0,29.10,West,270,1.0,10.0,65,0.00,,,0.98,Rainwise IP-100,2013-02-20 23:22:00,
2013-02-20 18:27:00,33.0,23.0,29.10,West,270,4.0,11.0,64,0.00,,,0.98,Rainwise IP-100,2013-02-20 23:27:00,
2013-02-20 18:32:00,33.0,23.0,29.11,NNE,22,3.0,11.0,64,0.00,,,0.98,Rainwise IP-100,2013-02-20 23:32:00,
2013-02-20 18:37:00,32.0,23.0,29.11,West,270,2.0,12.0,65,0.00,,,0.98,Rainwise IP-100,2013-02-20 23:37:00,
2013-02-20 18:42:00,32.0,23.0,29.10,West,270,4.0,11.0,66,0.00,,,0.98,Rainwise IP-100,2013-02-20 23:42:00,
2013-02-20 18:47:00,32.0,23.0,29.10,West,270,2.0,10.0,65,0.00,,,0.98,Rainwise IP-100,2013-02-20 23:47:00,
2013-02-20 18:52:00,32.0,23.0,29.11,West,270,8.0,13.0,65,0.00,,,0.98,Rainwise IP-100,2013-02-20 23:52:00,
2013-02-20 18:57:00,32.0,23.0,29.11,West,270,4.0,12.0,65,0.00,,,0.98,Rainwise IP-100,2013-02-20 23:57:00,
2013-02-20 19:02:00,32.0,23.0,29.11,North,360,3.0,9.0,65,0.00,,,0.98,Rainwise IP-100,2013-02-21 00:02:00,
2013-02-20 19:07:00,32.0,23.0,29.11,West,270,7.0,10.0,65,0.00,,,0.98,Rainwise IP-100,2013-02-21 00:07:00,
2013-02-20 19:12:00,32.0,23.0,29.11,West,270,7.0,15.0,64,0.00,,,0.98,Rainwise IP-100,2013-02-21 00:12:00,
2013-02-20 19:17:00,32.0,23.0,29.11,West,270,2.0,12.0,64,0.00,,,0.98,Rainwise IP-100,2013-02-21 00:17:00,
2013-02-20 19:22:00,32.0,23.0,29.11,SW,225,5.0,7.0,66,0.00,,,0.98,Rainwise IP-100,2013-02-21 00:22:00,
2013-02-20 19:27:00,32.0,23.0,29.11,WSW,247,5.0,8.0,66,0.00,,,0.98,Rainwise IP-100,2013-02-21 00:27:00,
2013-02-20 19:32:00,32.0,23.0,29.11,West,270,4.0,11.0,65,0.00,,,0.98,Rainwise IP-100,2013-02-21 00:32:00,
2013-02-20 19:37:00,32.0,23.0,29.11,WSW,247,8.0,12.0,66,0.00,,,0.98,Rainwise IP-100,2013-02-21 00:37:00,
2013-02-20 19:42:00,31.0,21.0,29.12,West,270,0.0,15.0,65,0.00,,,0.98,Rainwise IP-100,2013-02-21 00:42:00,
2013-02-20 19:47:00,31.0,21.0,29.12,West,270,6.0,11.0,65,0.00,,,0.98,Rainwise IP-100,2013-02-21 00:47:00,
2013-02-20 19:52:00,31.0,21.0,29.11,North,360,4.0,11.0,65,0.00,,,0.98,Rainwise IP-100,2013-02-21 00:52:00,
2013-02-20 19:57:00,31.0,21.0,29.11,West,270,3.0,12.0,66,0.00,,,0.98,Rainwise IP-100,2013-02-21 00:57:00,
2013-02-20 20:02:00,31.0,21.0,29.11,SSW,202,1.0,10.0,65,0.00,,,0.98,Rainwise IP-100,2013-02-21 01:02:00,
2013-02-20 20:07:00,31.0,21.0,29.11,West,270,3.0,13.0,64,0.00,,,0.98,Rainwise IP-100,2013-02-21 01:07:00,
2013-02-20 20:12:00,31.0,21.0,29.11,WSW,247,6.0,11.0,63,0.00,,,0.98,Rainwise IP-100,2013-02-21 01:12:00,
2013-02-20 20:17:00,31.0,21.0,29.11,West,270,6.0,11.0,65,0.00,,,0.98,Rainwise IP-100,2013-02-21 01:17:00,
2013-02-20 20:22:00,30.0,21.0,29.10,West,270,2.0,9.0,65,0.00,,,0.98,Rainwise IP-100,2013-02-21 01:22:00,
2013-02-20 20:27:00,30.0,21.0,29.10,West,270,2.0,10.0,65,0.00,,,0.98,Rainwise IP-100,2013-02-21 01:27:00,
2013-02-20 20:32:00,30.0,21.0,29.11,WSW,247,1.0,10.0,66,0.00,,,0.98,Rainwise IP-100,2013-02-21 01:32:00,
2013-02-20 20:37:00,30.0,21.0,29.11,West,270,4.0,8.0,67,0.00,,,0.98,Rainwise IP-100,2013-02-21 01:37:00,
2013-02-20 20:42:00,30.0,21.0,29.10,NNE,22,4.0,10.0,67,0.00,,,0.98,Rainwise IP-100,2013-02-21 01:42:00,
2013-02-20 20:47:00,30.0,21.0,29.10,SW,225,4.0,13.0,65,0.00,,,0.98,Rainwise IP-100,2013-02-21 01:47:00,
2013-02-20 20:52:00,30.0,21.0,29.11,North,360,3.0,13.0,65,0.00,,,0.98,Rainwise IP-100,2013-02-21 01:52:00,
2013-02-20 20:57:00,30.0,21.0,29.11,North,360,2.0,16.0,63,0.00,,,0.98,Rainwise IP-100,2013-02-21 01:57:00,
2013-02-20 21:02:00,30.0,21.0,29.11,West,270,7.0,9.0,65,0.00,,,0.98,Rainwise IP-100,2013-02-21 02:02:00,
2013-02-20 21:07:00,30.0,21.0,29.11,West,270,10.0,14.0,65,0.00,,,0.98,Rainwise IP-100,2013-02-21 02:07:00,
2013-02-20 21:12:00,30.0,21.0,29.11,West,270,17.0,17.0,64,0.00,,,0.98,Rainwise IP-100,2013-02-21 02:12:00,
2013-02-20 21:17:00,30.0,21.0,29.11,North,360,4.0,17.0,65,0.00,,,0.98,Rainwise IP-100,2013-02-21 02:17:00,
2013-02-20 21:22:00,29.0,18.0,29.11,West,270,5.0,16.0,65,0.00,,,0.98,Rainwise IP-100,2013-02-21 02:22:00,
2013-02-20 21:27:00,29.0,21.0,29.11,SSW,202,0.0,11.0,66,0.00,,,0.98,Rainwise IP-100,2013-02-21 02:27:00,
2013-02-20 21:32:00,29.0,21.0,29.11,West,270,3.0,14.0,66,0.00,,,0.98,Rainwise IP-100,2013-02-21 02:32:00,
2013-02-20 21:37:00,29.0,18.0,29.11,West,270,3.0,16.0,65,0.00,,,0.98,Rainwise IP-100,2013-02-21 02:37:00,
2013-02-20 21:42:00,29.0,18.0,29.11,West,270,10.0,16.0,63,0.00,,,0.98,Rainwise IP-100,2013-02-21 02:42:00,
2013-02-20 21:47:00,29.0,18.0,29.11,South,180,1.0,16.0,63,0.00,,,0.98,Rainwise IP-100,2013-02-21 02:47:00,
2013-02-20 21:52:00,29.0,18.0,29.11,West,270,10.0,15.0,63,0.00,,,0.98,Rainwise IP-100,2013-02-21 02:52:00,
2013-02-20 21:57:00,29.0,18.0,29.11,West,270,7.0,11.0,64,0.00,,,0.98,Rainwise IP-100,2013-02-21 02:57:00,
2013-02-20 22:02:00,29.0,18.0,29.11,NE,45,3.0,12.0,62,0.00,,,0.98,Rainwise IP-100,2013-02-21 03:02:00,
2013-02-20 22:07:00,29.0,18.0,29.11,West,270,3.0,14.0,63,0.00,,,0.98,Rainwise IP-100,2013-02-21 03:07:00,
2013-02-20 22:12:00,29.0,18.0,29.11,SW,225,6.0,14.0,63,0.00,,,0.98,Rainwise IP-100,2013-02-21 03:12:00,
2013-02-20 22:17:00,29.0,18.0,29.11,North,360,6.0,14.0,63,0.00,,,0.98,Rainwise IP-100,2013-02-21 03:17:00,
2013-02-20 22:22:00,29.0,18.0,29.11,WSW,247,4.0,12.0,63,0.00,,,0.98,Rainwise IP-100,2013-02-21 03:22:00,
2013-02-20 22:27:00,29.0,18.0,29.11,WSW,247,6.0,12.0,65,0.00,,,0.98,Rainwise IP-100,2013-02-21 03:27:00,
2013-02-20 22:32:00,29.0,18.0,29.11,North,360,6.0,12.0,64,0.00,,,0.98,Rainwise IP-100,2013-02-21 03:32:00,
2013-02-20 22:37:00,29.0,18.0,29.11,SSW,202,2.0,14.0,64,0.00,,,0.98,Rainwise IP-100,2013-02-21 03:37:00,
2013-02-20 22:42:00,29.0,18.0,29.11,West,270,10.0,14.0,65,0.00,,,0.98,Rainwise IP-100,2013-02-21 03:42:00,
2013-02-20 22:47:00,29.0,18.0,29.11,West,270,3.0,21.0,64,0.00,,,0.98,Rainwise IP-100,2013-02-21 03:47:00,
2013-02-20 22:52:00,29.0,18.0,29.11,WSW,247,10.0,11.0,64,0.00,,,0.98,Rainwise IP-100,2013-02-21 03:52:00,
2013-02-20 22:57:00,28.0,18.0,29.11,West,270,3.0,15.0,65,0.00,,,0.98,Rainwise IP-100,2013-02-21 03:57:00,
2013-02-20 23:02:00,28.0,18.0,29.11,West,270,6.0,12.0,65,0.00,,,0.98,Rainwise IP-100,2013-02-21 04:02:00,
2013-02-20 23:07:00,28.0,18.0,29.11,North,360,6.0,12.0,65,0.00,,,0.98,Rainwise IP-100,2013-02-21 04:07:00,
2013-02-20 23:12:00,28.0,18.0,29.11,West,270,5.0,14.0,64,0.00,,,0.98,Rainwise IP-100,2013-02-21 04:12:00,
2013-02-20 23:17:00,28.0,18.0,29.11,West,270,3.0,16.0,65,0.00,,,0.98,Rainwise IP-100,2013-02-21 04:17:00,
2013-02-20 23:22:00,28.0,18.0,29.12,West,270,4.0,13.0,64,0.00,,,0.98,Rainwise IP-100,2013-02-21 04:22:00,
2013-02-20 23:27:00,28.0,18.0,29.12,West,270,9.0,14.0,64,0.00,,,0.98,Rainwise IP-100,2013-02-21 04:27:00,
2013-02-20 23:32:00,28.0,18.0,29.12,NE,45,1.0,14.0,64,0.00,,,0.98,Rainwise IP-100,2013-02-21 04:32:00,
2013-02-20 23:37:00,28.0,18.0,29.12,East,90,3.0,16.0,67,0.00,,,0.98,Rainwise IP-100,2013-02-21 04:37:00,
2013-02-20 23:42:00,28.0,18.0,29.12,NE,45,9.0,16.0,65,0.00,,,0.98,Rainwise IP-100,2013-02-21 04:42:00,
2013-02-20 23:47:00,28.0,18.0,29.12,WSW,247,3.0,11.0,66,0.00,,,0.98,Rainwise IP-100,2013-02-21 04:47:00,
2013-02-20 23:52:00,28.0,18.0,29.13,West,270,5.0,22.0,65,0.00,,,0.98,Rainwise IP-100,2013-02-21 04:52:00,
2013-02-20 23:57:00,28.0,18.0,29.13,West,270,5.0,19.0,65,0.00,,,0.98,Rainwise IP-100,2013-02-21 04:57:00,